Regional Weather Roundup
Issued by NWS

Home | Current Version | Previous Version | Graphics & Text | Print | Product List | Glossary On
Versions: 1 2 3 4 5 6 7 8 9 10 11 12 13 14 15 16 17 18 19 20 21 22 23 24 25 26 27 28 29 30 31 32 33 34 35 36 37 38 39 40 41 42 43 44 45 46 47 48 49 50
358
ASUS44 KLIX 220801
RWRLA
LOUISIANA WEATHER ROUNDUP
NATIONAL WEATHER SERVICE NEW ORLEANS LA
300 AM CDT MON SEP 22 2014

NOTE: "FAIR" INDICATES FEW OR NO CLOUDS BELOW 12,000 FEET WITH NO
      SIGNIFICANT WEATHER AND/OR OBSTRUCTIONS TO VISIBILITY.
      SKY/WX - SKY CONDITION AND SIGNIFICANT WEATHER.
      TMP - AIR TEMPERATURE.    DP   - DEWPOINT TEMPERATURE.
      RH  - RELATIVE HUMIDITY.  PRES - PRESSURE.
      HX  - HEAT INDEX.         WCI  - WIND CHILL INDEX.

*  THESE STATIONS ARE NOT NWS OR FAA STATIONS AND ARE NOT UNDER
   NWS QUALITY CONTROL.

LAZ040-048-061>063-065-066-069-220900-
SOUTHEAST LOUISIANA

CITY           SKY/WX    TMP DP  RH WIND       PRES   REMARKS
N.O. AUDUBON     N/A     73  73 100 MISG        N/A
N.O. INTL ARPT PTCLDY    74  69  85 CALM      30.00F
N.O. LAKEFRONT CLEAR     79  71  76 N5        30.00F
N.O. DOWNTOWN* FAIR      77  66  69 CALM      30.00F
SLIDELL        CLEAR     69  65  86 CALM      30.00F
BATON ROUGE    CLEAR     69  67  93 CALM      30.02R
BOOTHVILLE     CLEAR     80  73  79 NE3       29.99S
BELLE CHASSE   CLEAR     71  67  87 CALM      29.99F
BOGALUSA*        N/A     67  64  90 CALM      30.03S FOG
GALLIANO*      NOT AVBL
NEW ROADS*     FAIR      69  68  98 CALM      30.02S FOG
GONZALES*      FAIR      68  68 100 CALM      30.00F
HAMMOND*       NOT AVBL
HOUMA*         CLEAR     71  67  85 NW3       30.00S
PORT FOURCHON* SUNNY     79  73  83 NE6       30.01F

$$

LAZ041-044-053-054-220900-
SOUTHWEST LOUISIANA

CITY           SKY/WX    TMP DP  RH WIND       PRES   REMARKS
LAKE CHARLES   CLEAR     72  70  93 NW3       30.02S FOG
LAFAYETTE      CLEAR     72  70  93 CALM      30.01F
PATTERSON        N/A     70  68  94 CALM      30.03F VSB 1/2
SALT POINT       N/A     75  71  87 CALM      30.00F
NEW IBERIA     CLEAR     70  68  93 CALM      30.02F
CHENAULT AIRPK CLEAR     73  71  93 NW3       30.03R

$$

LAZ027-028-220900-
CENTRAL LOUISIANA

CITY           SKY/WX    TMP DP  RH WIND       PRES   REMARKS
FORT POLK      PTCLDY    72  71  97 CALM      30.04S
ALEXANDRIA INT CLEAR     73  71  93 NW3       30.02R
ALEXANDRIA     CLEAR     71  69  93 CALM      30.03S

$$

LAZ001-002-220900-
NORTHWEST LOUISIANA

CITY           SKY/WX    TMP DP  RH WIND       PRES   REMARKS
SHREVEPORT     CLOUDY    79  70  74 NE6       30.06S
BARKSDALE AFB  CLOUDY    76  69  79 NE7       30.07S
DTN SHREVEPORT CLOUDY    77  70  79 NE9       30.07S

$$

LAZ014-016-220900-
NORTHEAST LOUISIANA

CITY           SKY/WX    TMP DP  RH WIND       PRES   REMARKS
MONROE         CLEAR     76  63  64 N10       30.06R
TALLULAH       MOCLDY    76  64  66 N12       30.03S

$$




USA.gov is the U.S. government's official web portal to all federal, state and local government web resources and services.